SCP
-0 -0 -0 -0 -0 -0 -0 -0 -0 -0 -0 -0 -0 -0 -0 -0 -0 -0 -0 -0 -0 -0 -0 -0 -0 -0 0 0 0 0 0 0 0 0 0 0 0 0 0 0 0 0 0 0 0 0 0
-0 -0 -0 -0 -0 -0 -0 -0 -0 -0 -0 -0 -0 -0 -0 -0 -0 -0 -0 -0 0 -0 -0 -0 -0 -0 0 0 0 0 0 0 0 0 0 0 0 0 0 0 0 0 0 0 0 0 0
-0 -0 -0 -0 -0 -0 -0 -0 -0 -0 -0 -0 0 0 -0 -0 -0 -0 0 0 0 -0 -0 0 -0 -0 0 0 0 0 0 0 0 0 0 0 0 0 0 0 0 -0 0 0 0 0 0
-0 -0 -0 -0 -0 -0 -0 0 0 0 0 0 0 0 0 0 0 0 0 0 0 -0 0 0 -0 -0 0 0 0 0 0 0 0 0 0 0 0 0 0 0 0 0 0 0 0 0 0
-0 -0 -0 -0 -0 0 0 0 0 0 0 0 0 0 0 0 0 0 0 0 -0 0 0 -0 0 0 0 0 0 0 0 0 0 0 0 0 0 0 0 0 0 0 0 -0 0 0 0
-0 -0 0 0 0 0 0 0 0 0 0 0 0 0 0 0 0 0 0 0 0 0 -0 -0 0 0 0 0 0 0 0 0 0 0 0 0 0 0 0 0 0 0 0 0 0 0 0
0 0 0 0 0 0 0 0 0 0 0 0 0 0 0 0 0 0 0 -0 0 0 0 0 0 0 0 0 0 0 0 0 0 0 0 0 0 0 0 0 0 0 0 0 0 0 0
0 0 0 0 0 0 0 0 0 0 0 0 0 0 0 0 0 -0 -0 -0 -0 0 0 0 0 0 0 0 0 0 0 0 0 0 0 0 0 0 0 0 0 0 0 0 0 0 0
0 0 0 0 0 0 0 0 0 0 0 0 0 0 0 0 0 0 0 0 0 0 0 0 0 0 0 0 0 0 0 0 0 0 0 0 0 0 0 0 0 0 0 0 0 0 0
0 0 0 0 0 0 0 0 0 0 0 0 0 0 0 0 0 0 0 0 0 0 0 0 0 0 0 0 0 0 0 0 0 0 0 0 0 0 0 0 0 0 0 0 0 0 0
0 0 0 0 0 0 0 0 0 0 0 0 0 0 0 0 0 0 0 0 0 0 0 0 0 0 0 0 0 0 0 0 0 0 0 0 0 0 0 0 0 0 0 0 0 0 0
0 0 0 0 0 0 0 0 0 0 0 0 0 0 0 0 0 0 0 0 0 0 0 0 0 0 0 0 0 0 0 0 0 0 0 0 0 0 0 0 0 0 0 0 0 0 0
0 0 0 0 0 0 0 0 0 0 0 0 0 -0 0 0 0 0 0 0 0 0 0 0 0 0 0 0 0 0 -0 0 0 0 0 0 0 0 0 0 0 0 0 0 0 0 0
0 0 0 0 0 0 0 0 0 0 0 0 -0 -0 0 0 0 0 0 0 0 0 0 0 0 0 0 0 -0 0 0 0 0 0 0 0 0 0 0 0 0 0 0 0 0 0 0
0 0 0 0 0 0 0 0 0 0 0 0 -0 0 0 0 0 0 0 0 0 0 0 0 0 0 0 0 0 0 0 0 0 0 0 0 0 0 0 0 0 0 0 0 0 0 0
0 0 0 0 0 0 0 0 0 -0 0 -0 0 0 0 0 0 0 0 0 0 0 0 0 0 0 0 0 0 0 0 0 0 0 0 -0 -0 0 0 0 0 0 0 0 0 0 0
0 0 0 0 0 0 0 0 -0 -0 -0 0 0 0 0 0 0 0 0 0 0 0 0 0 0 0 0 0 0 0 0 0 0 -0 -0 -0 -0 0 0 0 0 0 0 0 0 0 0
0 0 0 0 0 0 0 -0 -0 -0 0 0 0 0 0 0 0 0 0 0 0 0 0 0 0 0 0 0 0 0 -0 0 0 0 -0 -0 -0 -0 0 0 0 0 0 0 0 0 0
0 0 0 0 0 0 -0 -0 0 0 0 0 0 0 0 0 0 0 0 0 0 0 0 0 0 0 0 0 0 0 0 0 0 0 -0 -0 -0 -0 -0 0 0 0 0 0 0 0 0
0 0 0 0 0 -0 -0 0 0 0 0 0 0 0 0 0 0 0 0 0 0 0 0 0 0 0 0 0 0 0 0 0 0 0 0 0 -0 -0 0 0 0 0 0 0 0 0 0
0 0 0 0 -0 -0 -0 0 0 0 0 0 0 0 0 0 0 0 0 0 0 0 0 0 0 0 0 0 0 0 0 0 0 0 0 0 -0 0 0 0 0 0 0 0 0 0 0
0 0 0 0 0 -0 -0 0 0 0 0 0 0 0 0 0 0 0 0 0 0 0 0 0 0 0 0 0 0 0 0 0 0 0 0 0 -0 0 0 0 0 0 0 0 0 0 0
0 0 -0 0 0 0 0 0 0 0 0 0 0 0 0 0 0 0 0 0 0 0 0 0 0 0 0 0 0 0 0 0 0 0 0 0 -0 0 0 0 0 0 0 0 0 0 0
0 0 -0 0 0 0 0 0 0 0 0 0 0 0 0 0 0 0 0 0 0 0 0 0 0 0 0 -0 0 0 0 0 0 0 0 0 -0 0 0 0 0 0 0 0 0 0 0
0 0 0 0 0 0 0 0 0 0 0 0 0 0 0 0 0 0 0 0 0 0 0 0 0 0 -0 -0 -0 -0 -0 -0 -0 0 0 0 0 0 0 0 0 0 0 0 0 0 0
0 0 0 0 0 0 0 0 0 0 0 0 0 0 0 0 0 0 0 0 0 0 0 0 0 0 -0 0 -0 0 0 0 0 0 0 0 0 0 0 0 0 0 0 0 0 0 0
0 0 0 0 0 0 0 0 0 0 0 0 0 0 0 0 0 0 0 0 0 0 0 0 0 0 0 0 0 0 0 0 0 0 0 0 0 0 0 0 0 0 0 0 0 0 0
0 0 0 0 0 0 0 0 0 0 0 0 0 0 0 0 0 0 0 0 0 0 0 0 0 0 0 0 0 0 0 0 0 0 0 0 0 0 0 0 0 0 0 0 0 0 0
0 0 0 0 0 0 0 0 0 0 -0 0 0 0 0 -0 0 0 0 0 0 0 0 0 0 0 0 0 0 0 0 0 0 0 0 0 0 0 0 0 0 0 0 0 0 0 0
Wind_Speed_500mb
40 40 42 43 45 46 47 48 50 51 52 53 55 54 56 56 53 46 44 35 41 44 55 47 32 32 23 11 14 17 18 8 64 67 63 62 68 25 15 17 13 18 6 6 23 27 29
39 40 41 42 44 46 49 51 53 54 55 56 58 60 60 61 60 51 43 35 40 44 53 40 40 43 17 5 5 12 10 12 52 72 67 64 46 37 22 13 19 19 26 26 25 33 25
39 40 41 43 46 50 52 54 55 56 57 59 62 65 66 68 65 56 42 36 42 42 39 31 46 27 13 13 5 9 18 6 29 68 70 64 10 43 15 7 24 27 9 8 15 13 13
38 39 41 44 47 50 53 55 57 59 61 63 67 71 70 70 69 57 43 37 42 43 24 41 27 31 6 20 17 14 21 9 16 65 57 65 26 34 8 3 4 11 9 2 9 21 14
38 39 40 44 48 51 54 57 58 61 65 68 70 72 70 67 65 53 45 45 41 17 22 25 26 14 10 19 32 21 19 5 16 54 45 30 44 8 14 5 8 10 7 14 6 16 6
39 39 41 44 48 52 54 57 61 64 65 67 69 71 71 67 59 44 47 44 28 12 36 14 30 11 21 41 24 27 12 6 30 42 37 13 20 4 3 9 15 11 8 7 12 14 15
38 41 43 47 50 53 58 61 61 62 64 67 69 71 68 64 45 41 40 22 21 5 25 7 20 7 37 36 35 51 25 27 26 31 14 20 9 39 44 26 5 10 9 12 8 10 11
39 41 44 47 50 55 60 62 63 63 65 68 70 72 67 59 28 30 35 27 29 25 19 21 7 16 42 31 13 64 38 13 13 9 12 8 27 28 15 10 9 13 6 7 7 6 13
41 43 46 50 55 59 61 63 64 66 69 71 70 70 67 56 19 29 30 37 43 21 4 14 2 25 45 11 10 50 43 13 7 12 14 15 11 24 25 15 22 16 32 12 6 4 15
46 48 50 53 57 61 64 67 68 69 70 67 66 67 64 40 6 29 21 39 33 3 9 10 8 16 38 7 7 45 36 9 3 11 15 16 18 20 25 30 21 18 31 24 13 5 8
47 49 53 57 60 63 66 68 70 67 69 66 63 65 51 24 7 18 30 40 15 7 5 6 8 14 23 13 19 36 30 8 8 10 5 11 13 20 25 30 29 22 17 28 25 11 8
51 52 54 57 60 63 67 69 69 68 70 67 59 57 35 15 11 21 31 31 11 10 9 5 6 11 12 16 13 30 23 18 5 9 3 13 8 6 30 25 31 12 2 7 7 9 19
53 53 54 57 60 62 65 67 67 69 70 67 58 47 16 19 36 26 31 9 9 7 8 4 5 7 7 11 13 15 8 18 9 12 15 13 7 4 12 4 28 25 20 4 6 10 26
53 53 54 56 59 60 64 66 67 70 71 69 58 46 6 19 27 27 28 9 7 4 4 3 4 3 7 8 3 12 5 5 13 7 6 10 4 6 8 14 17 29 20 13 17 9 25
53 53 53 55 57 59 62 65 68 71 71 71 60 35 6 28 31 27 10 5 7 3 8 6 3 5 2 5 3 7 5 5 3 6 9 6 12 13 10 8 3 13 34 21 9 2 3
53 51 51 53 55 57 60 63 67 70 68 69 60 27 13 44 39 16 8 6 4 1 8 3 9 7 6 4 3 0 4 6 9 5 4 6 9 7 16 15 21 16 6 15 6 14 10
51 50 48 50 53 56 59 63 65 67 66 64 43 10 27 37 16 13 5 6 7 12 12 5 9 5 9 8 9 6 8 6 12 8 8 8 7 13 12 9 9 9 18 11 13 15 16
45 46 46 48 53 56 59 61 61 60 63 59 28 6 35 32 14 8 4 12 15 9 7 7 5 12 11 13 9 8 13 8 13 15 6 3 1 10 18 26 16 10 10 14 16 23 13
41 47 44 47 52 56 59 58 56 50 51 49 32 13 26 35 8 7 13 10 11 9 7 8 6 6 4 10 6 9 6 9 24 9 13 10 4 8 16 4 4 0 7 9 10 7 29
39 42 45 47 53 55 54 54 49 43 39 37 14 8 15 26 13 5 12 10 11 15 21 8 7 5 2 4 8 7 9 12 13 13 17 10 3 13 14 2 10 13 28 20 5 10 12
42 43 46 52 53 53 50 47 42 37 32 24 13 3 5 8 5 11 6 7 14 10 15 18 7 6 9 5 3 9 10 5 9 11 8 8 9 15 35 42 29 28 36 35 12 17 9
43 47 51 52 52 48 43 39 36 29 26 14 8 7 5 10 20 11 4 4 12 11 5 13 14 18 9 8 8 6 6 3 9 5 9 12 7 17 33 28 33 32 35 32 35 37 24
44 50 53 53 50 45 39 35 31 22 17 8 8 4 4 10 6 3 3 9 21 29 14 27 22 8 10 25 29 37 43 29 15 16 15 17 8 6 11 6 14 12 35 25 10 17 9
50 52 53 52 46 40 37 35 28 16 13 9 12 11 4 6 4 6 12 30 26 27 12 20 23 10 9 43 53 39 46 46 32 29 31 16 10 6 8 6 8 7 12 29 33 27 29
51 53 51 45 40 39 38 36 28 14 10 10 13 6 4 5 10 20 22 19 24 22 13 21 13 26 32 17 6 8 5 5 18 23 24 13 8 8 6 4 8 12 13 10 11 15 31
53 52 46 41 40 42 41 37 22 8 7 6 7 8 11 8 6 19 14 18 5 8 13 11 35 24 17 2 5 7 8 6 1 7 21 17 9 11 4 6 13 11 26 12 9 13 30
51 46 39 42 46 45 41 30 11 3 3 6 5 7 7 6 12 23 5 6 9 7 7 16 26 16 15 5 4 5 4 5 9 17 12 10 8 25 14 9 1 28 34 7 10 1 32
48 40 43 47 47 44 33 17 8 5 8 11 11 6 6 6 20 20 22 11 12 7 6 16 16 8 5 5 5 5 5 7 4 8 11 9 7 6 5 13 4 47 13 13 6 6 24
42 39 45 48 46 32 22 18 9 8 17 15 8 1 6 2 10 17 23 22 21 10 13 14 8 10 9 6 5 6 6 8 13 5 10 5 6 3 2 5 20 31 10 21 22 13 25
Wind_Direction_500mb
34 33 33 31 28 26 23 20 16 13 9 6 4 1 1 356 345 341 341 337 330 333 331 331 346 357 317 280 261 284 272 3 178 181 184 175 170 159 161 192 183 234 210 249 246 283 300
33 33 31 29 26 22 19 15 11 7 4 1 358 359 358 355 347 345 341 339 328 330 331 330 330 332 293 241 247 341 294 228 195 187 192 187 190 180 175 184 190 227 239 277 284 274 280
32 30 27 24 21 17 15 12 8 5 2 360 356 358 358 353 349 349 344 340 330 329 336 335 329 343 268 287 225 21 7 279 203 199 192 196 222 183 170 141 227 246 312 319 234 235 232
28 26 23 20 18 16 12 8 5 2 360 359 356 355 358 354 352 349 349 340 333 329 337 338 345 349 1 32 79 358 341 311 201 202 198 198 191 190 205 290 15 180 113 193 276 184 240
22 21 20 18 15 12 8 5 2 0 358 358 354 352 356 353 352 351 349 340 329 346 339 352 0 1 32 7 335 345 328 288 198 193 187 203 198 220 233 73 5 358 195 197 285 201 158
18 16 14 12 10 7 4 1 359 358 356 355 351 350 352 354 353 354 348 347 343 19 0 23 4 339 2 345 14 27 8 208 177 173 185 166 188 158 59 146 202 202 220 222 174 207 183
12 9 7 5 3 1 360 358 356 355 354 353 350 348 348 354 358 0 353 358 3 341 356 5 329 307 338 5 35 29 19 155 154 154 163 176 160 207 207 208 117 167 196 216 212 204 142
3 360 358 358 356 356 354 354 352 353 353 353 351 347 342 353 0 16 23 52 30 335 309 324 56 355 356 354 354 21 28 157 175 177 132 126 221 221 189 192 186 232 241 252 289 226 176
354 352 351 351 350 350 350 350 351 351 352 352 351 343 339 347 2 14 24 15 355 341 297 305 62 19 1 358 45 8 9 340 179 185 191 176 235 170 185 184 196 219 229 227 209 351 211
351 349 347 346 346 347 347 347 350 349 348 347 348 341 337 348 56 19 14 353 343 321 54 284 0 16 3 344 64 17 15 1 295 216 176 233 234 197 197 204 174 213 216 239 254 320 218
342 342 342 343 344 345 345 345 347 347 346 345 348 341 343 357 3 6 340 345 348 140 354 17 15 24 17 50 330 358 8 55 352 308 106 222 197 201 207 211 182 236 162 206 230 212 299
339 339 339 340 342 343 343 344 346 346 346 345 349 345 348 357 8 340 342 345 126 52 241 3 63 1 16 8 17 339 4 39 67 312 255 241 251 198 221 212 201 175 331 136 117 138 236
337 337 338 340 341 341 342 343 346 346 347 345 347 346 1 20 355 336 343 342 42 153 351 36 344 16 78 348 358 358 46 26 48 25 11 335 245 179 249 223 199 180 157 267 228 201 234
337 336 337 338 339 342 343 343 345 346 346 344 345 339 271 354 348 337 349 50 188 36 44 5 30 68 105 1 348 340 48 70 24 68 68 359 275 21 13 196 200 202 180 170 196 193 228
336 336 336 338 338 343 342 342 344 345 346 344 347 348 209 326 317 328 353 59 184 207 311 307 325 107 330 324 94 355 27 115 112 353 99 27 274 328 287 331 1 211 210 194 99 240 178
332 333 337 338 338 341 341 343 344 343 346 348 348 347 14 325 319 274 81 230 183 338 317 145 196 196 191 246 147 114 231 138 141 208 230 161 291 284 310 312 222 196 259 197 198 196 241
328 333 337 339 338 340 341 343 343 343 346 350 355 10 352 352 30 68 103 274 300 317 335 236 216 240 208 184 185 212 219 162 129 171 109 157 164 294 353 230 235 189 226 267 179 200 213
328 332 338 340 338 339 341 342 343 343 348 352 1 5 352 6 48 31 29 315 310 282 322 296 228 210 195 189 210 235 213 151 141 143 126 165 196 265 242 265 289 318 278 236 224 221 234
338 332 338 340 338 338 340 339 340 346 350 352 345 325 9 24 61 349 326 299 275 314 323 313 289 197 165 197 219 224 211 124 142 139 167 173 96 312 300 299 72 131 323 319 288 312 214
333 333 338 340 338 338 339 339 339 349 354 356 1 8 15 52 80 54 336 322 312 300 293 262 280 306 91 242 243 222 211 179 146 140 141 113 152 210 250 29 21 302 301 322 15 271 253
335 334 337 340 339 337 339 339 344 346 -0 6 17 75 39 342 324 319 242 267 297 314 350 342 298 191 67 275 277 226 231 152 83 143 89 108 244 247 261 270 275 268 275 287 268 246 232
339 339 338 341 338 337 339 341 345 343 4 34 28 9 358 272 289 301 314 245 288 306 329 286 257 280 280 249 227 307 316 108 204 129 138 179 243 276 276 255 249 262 262 262 258 252 246
340 339 343 341 339 337 340 343 343 338 360 32 342 303 265 270 277 279 263 319 315 305 260 260 287 319 257 250 249 258 258 249 230 165 176 175 209 253 258 293 315 274 237 228 93 32 305
343 343 343 343 341 339 341 341 340 339 331 326 310 314 248 279 266 270 284 304 319 334 297 285 288 253 253 301 294 272 248 240 219 217 172 182 195 249 274 293 178 167 132 89 99 51 21
345 344 345 342 343 341 341 336 339 336 318 287 292 292 250 275 264 293 323 322 326 328 306 303 288 293 307 297 306 296 242 211 230 211 188 162 136 268 253 230 283 170 27 39 56 44 16
347 346 344 345 345 342 335 334 338 351 334 305 303 286 268 297 272 304 323 312 324 305 327 294 327 330 344 26 250 223 224 149 270 95 150 134 155 246 267 248 201 54 344 334 120 39 357
348 347 346 348 344 338 335 341 355 54 86 82 42 350 274 277 295 325 298 328 310 280 278 286 334 323 12 336 293 302 244 196 202 174 168 157 186 223 232 259 260 344 319 216 77 14 333
348 347 349 346 341 340 345 1 49 115 131 118 104 13 341 292 315 335 333 329 341 289 301 321 342 352 320 330 315 311 299 348 4 48 133 162 195 164 199 221 223 350 339 70 81 356 330
348 351 348 345 345 351 15 23 60 109 134 128 110 206 302 72 6 12 21 25 356 287 307 327 301 300 342 319 332 318 341 331 330 61 7 71 27 11 257 334 322 321 357 59 13 308 351
Wind_Speed_850mb
40 40 42 43 45 46 47 48 50 51 52 53 55 54 56 56 53 46 44 35 41 44 55 47 32 32 23 11 14 17 18 8 64 67 63 62 68 25 15 17 13 18 6 6 23 27 29
39 40 41 42 44 46 49 51 53 54 55 56 58 60 60 61 60 51 43 35 40 44 53 40 40 43 17 5 5 12 10 12 52 72 67 64 46 37 22 13 19 19 26 26 25 33 25
39 40 41 43 46 50 52 54 55 56 57 59 62 65 66 68 65 56 42 36 42 42 39 31 46 27 13 13 5 9 18 6 29 68 70 64 10 43 15 7 24 27 9 8 15 13 13
38 39 41 44 47 50 53 55 57 59 61 63 67 71 70 70 69 57 43 37 42 43 24 41 27 31 6 20 17 14 21 9 16 65 57 65 26 34 8 3 4 11 9 2 9 21 14
38 39 40 44 48 51 54 57 58 61 65 68 70 72 70 67 65 53 45 45 41 17 22 25 26 14 10 19 32 21 19 5 16 54 45 30 44 8 14 5 8 10 7 14 6 16 6
39 39 41 44 48 52 54 57 61 64 65 67 69 71 71 67 59 44 47 44 28 12 36 14 30 11 21 41 24 27 12 6 30 42 37 13 20 4 3 9 15 11 8 7 12 14 15
38 41 43 47 50 53 58 61 61 62 64 67 69 71 68 64 45 41 40 22 21 5 25 7 20 7 37 36 35 51 25 27 26 31 14 20 9 39 44 26 5 10 9 12 8 10 11
39 41 44 47 50 55 60 62 63 63 65 68 70 72 67 59 28 30 35 27 29 25 19 21 7 16 42 31 13 64 38 13 13 9 12 8 27 28 15 10 9 13 6 7 7 6 13
41 43 46 50 55 59 61 63 64 66 69 71 70 70 67 56 19 29 30 37 43 21 4 14 2 25 45 11 10 50 43 13 7 12 14 15 11 24 25 15 22 16 32 12 6 4 15
46 48 50 53 57 61 64 67 68 69 70 67 66 67 64 40 6 29 21 39 33 3 9 10 8 16 38 7 7 45 36 9 3 11 15 16 18 20 25 30 21 18 31 24 13 5 8
47 49 53 57 60 63 66 68 70 67 69 66 63 65 51 24 7 18 30 40 15 7 5 6 8 14 23 13 19 36 30 8 8 10 5 11 13 20 25 30 29 22 17 28 25 11 8
51 52 54 57 60 63 67 69 69 68 70 67 59 57 35 15 11 21 31 31 11 10 9 5 6 11 12 16 13 30 23 18 5 9 3 13 8 6 30 25 31 12 2 7 7 9 19
53 53 54 57 60 62 65 67 67 69 70 67 58 47 16 19 36 26 31 9 9 7 8 4 5 7 7 11 13 15 8 18 9 12 15 13 7 4 12 4 28 25 20 4 6 10 26
53 53 54 56 59 60 64 66 67 70 71 69 58 46 6 19 27 27 28 9 7 4 4 3 4 3 7 8 3 12 5 5 13 7 6 10 4 6 8 14 17 29 20 13 17 9 25
53 53 53 55 57 59 62 65 68 71 71 71 60 35 6 28 31 27 10 5 7 3 8 6 3 5 2 5 3 7 5 5 3 6 9 6 12 13 10 8 3 13 34 21 9 2 3
53 51 51 53 55 57 60 63 67 70 68 69 60 27 13 44 39 16 8 6 4 1 8 3 9 7 6 4 3 0 4 6 9 5 4 6 9 7 16 15 21 16 6 15 6 14 10
51 50 48 50 53 56 59 63 65 67 66 64 43 10 27 37 16 13 5 6 7 12 12 5 9 5 9 8 9 6 8 6 12 8 8 8 7 13 12 9 9 9 18 11 13 15 16
45 46 46 48 53 56 59 61 61 60 63 59 28 6 35 32 14 8 4 12 15 9 7 7 5 12 11 13 9 8 13 8 13 15 6 3 1 10 18 26 16 10 10 14 16 23 13
41 47 44 47 52 56 59 58 56 50 51 49 32 13 26 35 8 7 13 10 11 9 7 8 6 6 4 10 6 9 6 9 24 9 13 10 4 8 16 4 4 0 7 9 10 7 29
39 42 45 47 53 55 54 54 49 43 39 37 14 8 15 26 13 5 12 10 11 15 21 8 7 5 2 4 8 7 9 12 13 13 17 10 3 13 14 2 10 13 28 20 5 10 12
42 43 46 52 53 53 50 47 42 37 32 24 13 3 5 8 5 11 6 7 14 10 15 18 7 6 9 5 3 9 10 5 9 11 8 8 9 15 35 42 29 28 36 35 12 17 9
43 47 51 52 52 48 43 39 36 29 26 14 8 7 5 10 20 11 4 4 12 11 5 13 14 18 9 8 8 6 6 3 9 5 9 12 7 17 33 28 33 32 35 32 35 37 24
44 50 53 53 50 45 39 35 31 22 17 8 8 4 4 10 6 3 3 9 21 29 14 27 22 8 10 25 29 37 43 29 15 16 15 17 8 6 11 6 14 12 35 25 10 17 9
50 52 53 52 46 40 37 35 28 16 13 9 12 11 4 6 4 6 12 30 26 27 12 20 23 10 9 43 53 39 46 46 32 29 31 16 10 6 8 6 8 7 12 29 33 27 29
51 53 51 45 40 39 38 36 28 14 10 10 13 6 4 5 10 20 22 19 24 22 13 21 13 26 32 17 6 8 5 5 18 23 24 13 8 8 6 4 8 12 13 10 11 15 31
53 52 46 41 40 42 41 37 22 8 7 6 7 8 11 8 6 19 14 18 5 8 13 11 35 24 17 2 5 7 8 6 1 7 21 17 9 11 4 6 13 11 26 12 9 13 30
51 46 39 42 46 45 41 30 11 3 3 6 5 7 7 6 12 23 5 6 9 7 7 16 26 16 15 5 4 5 4 5 9 17 12 10 8 25 14 9 1 28 34 7 10 1 32
48 40 43 47 47 44 33 17 8 5 8 11 11 6 6 6 20 20 22 11 12 7 6 16 16 8 5 5 5 5 5 7 4 8 11 9 7 6 5 13 4 47 13 13 6 6 24
42 39 45 48 46 32 22 18 9 8 17 15 8 1 6 2 10 17 23 22 21 10 13 14 8 10 9 6 5 6 6 8 13 5 10 5 6 3 2 5 20 31 10 21 22 13 25
Wind_Direction_850mb
34 33 33 31 28 26 23 20 16 13 9 6 4 1 1 356 345 341 341 337 330 333 331 331 346 357 317 280 261 284 272 3 178 181 184 175 170 159 161 192 183 234 210 249 246 283 300
33 33 31 29 26 22 19 15 11 7 4 1 358 359 358 355 347 345 341 339 328 330 331 330 330 332 293 241 247 341 294 228 195 187 192 187 190 180 175 184 190 227 239 277 284 274 280
32 30 27 24 21 17 15 12 8 5 2 360 356 358 358 353 349 349 344 340 330 329 336 335 329 343 268 287 225 21 7 279 203 199 192 196 222 183 170 141 227 246 312 319 234 235 232
28 26 23 20 18 16 12 8 5 2 360 359 356 355 358 354 352 349 349 340 333 329 337 338 345 349 1 32 79 358 341 311 201 202 198 198 191 190 205 290 15 180 113 193 276 184 240
22 21 20 18 15 12 8 5 2 0 358 358 354 352 356 353 352 351 349 340 329 346 339 352 0 1 32 7 335 345 328 288 198 193 187 203 198 220 233 73 5 358 195 197 285 201 158
18 16 14 12 10 7 4 1 359 358 356 355 351 350 352 354 353 354 348 347 343 19 0 23 4 339 2 345 14 27 8 208 177 173 185 166 188 158 59 146 202 202 220 222 174 207 183
12 9 7 5 3 1 360 358 356 355 354 353 350 348 348 354 358 0 353 358 3 341 356 5 329 307 338 5 35 29 19 155 154 154 163 176 160 207 207 208 117 167 196 216 212 204 142
3 360 358 358 356 356 354 354 352 353 353 353 351 347 342 353 0 16 23 52 30 335 309 324 56 355 356 354 354 21 28 157 175 177 132 126 221 221 189 192 186 232 241 252 289 226 176
354 352 351 351 350 350 350 350 351 351 352 352 351 343 339 347 2 14 24 15 355 341 297 305 62 19 1 358 45 8 9 340 179 185 191 176 235 170 185 184 196 219 229 227 209 351 211
351 349 347 346 346 347 347 347 350 349 348 347 348 341 337 348 56 19 14 353 343 321 54 284 0 16 3 344 64 17 15 1 295 216 176 233 234 197 197 204 174 213 216 239 254 320 218
342 342 342 343 344 345 345 345 347 347 346 345 348 341 343 357 3 6 340 345 348 140 354 17 15 24 17 50 330 358 8 55 352 308 106 222 197 201 207 211 182 236 162 206 230 212 299
339 339 339 340 342 343 343 344 346 346 346 345 349 345 348 357 8 340 342 345 126 52 241 3 63 1 16 8 17 339 4 39 67 312 255 241 251 198 221 212 201 175 331 136 117 138 236
337 337 338 340 341 341 342 343 346 346 347 345 347 346 1 20 355 336 343 342 42 153 351 36 344 16 78 348 358 358 46 26 48 25 11 335 245 179 249 223 199 180 157 267 228 201 234
337 336 337 338 339 342 343 343 345 346 346 344 345 339 271 354 348 337 349 50 188 36 44 5 30 68 105 1 348 340 48 70 24 68 68 359 275 21 13 196 200 202 180 170 196 193 228
336 336 336 338 338 343 342 342 344 345 346 344 347 348 209 326 317 328 353 59 184 207 311 307 325 107 330 324 94 355 27 115 112 353 99 27 274 328 287 331 1 211 210 194 99 240 178
332 333 337 338 338 341 341 343 344 343 346 348 348 347 14 325 319 274 81 230 183 338 317 145 196 196 191 246 147 114 231 138 141 208 230 161 291 284 310 312 222 196 259 197 198 196 241
328 333 337 339 338 340 341 343 343 343 346 350 355 10 352 352 30 68 103 274 300 317 335 236 216 240 208 184 185 212 219 162 129 171 109 157 164 294 353 230 235 189 226 267 179 200 213
328 332 338 340 338 339 341 342 343 343 348 352 1 5 352 6 48 31 29 315 310 282 322 296 228 210 195 189 210 235 213 151 141 143 126 165 196 265 242 265 289 318 278 236 224 221 234
338 332 338 340 338 338 340 339 340 346 350 352 345 325 9 24 61 349 326 299 275 314 323 313 289 197 165 197 219 224 211 124 142 139 167 173 96 312 300 299 72 131 323 319 288 312 214
333 333 338 340 338 338 339 339 339 349 354 356 1 8 15 52 80 54 336 322 312 300 293 262 280 306 91 242 243 222 211 179 146 140 141 113 152 210 250 29 21 302 301 322 15 271 253
335 334 337 340 339 337 339 339 344 346 -0 6 17 75 39 342 324 319 242 267 297 314 350 342 298 191 67 275 277 226 231 152 83 143 89 108 244 247 261 270 275 268 275 287 268 246 232
339 339 338 341 338 337 339 341 345 343 4 34 28 9 358 272 289 301 314 245 288 306 329 286 257 280 280 249 227 307 316 108 204 129 138 179 243 276 276 255 249 262 262 262 258 252 246
340 339 343 341 339 337 340 343 343 338 360 32 342 303 265 270 277 279 263 319 315 305 260 260 287 319 257 250 249 258 258 249 230 165 176 175 209 253 258 293 315 274 237 228 93 32 305
343 343 343 343 341 339 341 341 340 339 331 326 310 314 248 279 266 270 284 304 319 334 297 285 288 253 253 301 294 272 248 240 219 217 172 182 195 249 274 293 178 167 132 89 99 51 21
345 344 345 342 343 341 341 336 339 336 318 287 292 292 250 275 264 293 323 322 326 328 306 303 288 293 307 297 306 296 242 211 230 211 188 162 136 268 253 230 283 170 27 39 56 44 16
347 346 344 345 345 342 335 334 338 351 334 305 303 286 268 297 272 304 323 312 324 305 327 294 327 330 344 26 250 223 224 149 270 95 150 134 155 246 267 248 201 54 344 334 120 39 357
348 347 346 348 344 338 335 341 355 54 86 82 42 350 274 277 295 325 298 328 310 280 278 286 334 323 12 336 293 302 244 196 202 174 168 157 186 223 232 259 260 344 319 216 77 14 333
348 347 349 346 341 340 345 1 49 115 131 118 104 13 341 292 315 335 333 329 341 289 301 321 342 352 320 330 315 311 299 348 4 48 133 162 195 164 199 221 223 350 339 70 81 356 330
348 351 348 345 345 351 15 23 60 109 134 128 110 206 302 72 6 12 21 25 356 287 307 327 301 300 342 319 332 318 341 331 330 61 7 71 27 11 257 334 322 321 357 59 13 308 351